PUA1497 SADF-SULS

Flight info

Callsign PUA1497
Flight time 1h 14m
Altitude 7000
Route DORVO A305 CRR
Aircraft P28B/L-SDGRY/S

Departure

Time 2026-05-08 10:47
Airport San Fernando Airport (SADF)

Arrival

Time 2026-05-08 12:02
Airport Capitan Corbeta CA Curbelo International Airport (SULS)
Time Latitude Longitude Altitude Speed Heading
2026-05-08 10:38 -34.45579 -58.58433 18 ft 0 kts 180°
2026-05-08 10:42 -34.45572 -58.58441 18 ft 2 kts 94°
2026-05-08 10:42 -34.45575 -58.58450 18 ft 0 kts 39°
2026-05-08 10:42 -34.45568 -58.58443 18 ft 6 kts 31°
2026-05-08 10:42 -34.45513 -58.58396 18 ft 11 kts 50°
2026-05-08 10:43 -34.45468 -58.58305 18 ft 14 kts 59°
2026-05-08 10:43 -34.45421 -58.58191 18 ft 17 kts 64°
2026-05-08 10:43 -34.45368 -58.58062 18 ft 16 kts 60°
2026-05-08 10:43 -34.45305 -58.57978 18 ft 12 kts 354°
2026-05-08 10:44 -34.45252 -58.58021 18 ft 8 kts 320°
2026-05-08 10:44 -34.45200 -58.58067 18 ft 10 kts 329°
2026-05-08 10:44 -34.45130 -58.58116 18 ft 13 kts 330°
2026-05-08 10:44 -34.45061 -58.58171 18 ft 10 kts 322°
2026-05-08 10:45 -34.45003 -58.58206 18 ft 10 kts 334°
2026-05-08 10:45 -34.44941 -58.58250 18 ft 11 kts 330°
2026-05-08 10:45 -34.44876 -58.58302 18 ft 10 kts 323°
2026-05-08 10:45 -34.44837 -58.58354 18 ft 7 kts 271°
2026-05-08 10:46 -34.44861 -58.58388 18 ft 0 kts 223°
2026-05-08 10:46 -34.44966 -58.58512 18 ft 49 kts 224°
2026-05-08 10:46 -34.45293 -58.58907 144 ft 73 kts 227°
2026-05-08 10:47 -34.45672 -58.59306 431 ft 71 kts 229°
2026-05-08 10:47 -34.46074 -58.59722 575 ft 81 kts 227°
2026-05-08 10:47 -34.46566 -58.60118 757 ft 87 kts 206°
2026-05-08 10:47 -34.47082 -58.60431 1014 ft 80 kts 223°
2026-05-08 10:48 -34.47531 -58.60885 1131 ft 87 kts 213°
2026-05-08 10:48 -34.48158 -58.60886 1254 ft 107 kts 157°
2026-05-08 10:48 -34.48529 -58.60006 1379 ft 129 kts 100°
2026-05-08 10:48 -34.48227 -58.58986 1661 ft 130 kts 69°
2026-05-08 10:49 -34.47799 -58.58028 1879 ft 131 kts 67°
2026-05-08 10:49 -34.47363 -58.57048 2079 ft 132 kts 70°
2026-05-08 10:49 -34.46950 -58.56041 2234 ft 135 kts 70°
2026-05-08 10:49 -34.46670 -58.55007 2408 ft 126 kts 94°
2026-05-08 10:50 -34.46644 -58.54017 2712 ft 111 kts 104°
2026-05-08 10:50 -34.46815 -58.53167 2899 ft 102 kts 127°
2026-05-08 10:50 -34.47090 -58.52350 3062 ft 107 kts 124°
2026-05-08 10:50 -34.47360 -58.51472 3212 ft 114 kts 121°
2026-05-08 10:51 -34.47617 -58.50535 3368 ft 119 kts 118°
2026-05-08 10:51 -34.47866 -58.49568 3526 ft 121 kts 117°
2026-05-08 10:51 -34.48111 -58.48592 3676 ft 121 kts 116°
2026-05-08 10:51 -34.48354 -58.47614 3808 ft 121 kts 116°
2026-05-08 10:52 -34.48598 -58.46629 3956 ft 123 kts 115°
2026-05-08 10:52 -34.48841 -58.45647 4107 ft 123 kts 116°
2026-05-08 10:52 -34.49086 -58.44652 4259 ft 123 kts 114°
2026-05-08 10:52 -34.49331 -58.43661 4413 ft 123 kts 114°
2026-05-08 10:53 -34.49573 -58.42676 4562 ft 121 kts 114°
2026-05-08 10:53 -34.49813 -58.41701 4703 ft 120 kts 115°
2026-05-08 10:53 -34.50054 -58.40725 4849 ft 120 kts 113°
2026-05-08 10:53 -34.50294 -58.39753 4997 ft 120 kts 114°
2026-05-08 10:54 -34.50533 -58.38783 5147 ft 121 kts 113°
2026-05-08 10:54 -34.50773 -58.37808 5297 ft 120 kts 113°
2026-05-08 10:54 -34.51011 -58.36839 5445 ft 120 kts 113°
2026-05-08 10:54 -34.51247 -58.35877 5599 ft 119 kts 112°
2026-05-08 10:55 -34.51483 -58.34921 5743 ft 118 kts 113°
2026-05-08 10:55 -34.51717 -58.33970 5889 ft 117 kts 112°
2026-05-08 10:55 -34.51947 -58.33037 6040 ft 117 kts 113°
2026-05-08 10:55 -34.52179 -58.32093 6180 ft 117 kts 112°
2026-05-08 10:56 -34.52411 -58.31149 6320 ft 117 kts 114°
2026-05-08 10:56 -34.52644 -58.30200 6459 ft 118 kts 112°
2026-05-08 10:56 -34.52879 -58.29245 6600 ft 118 kts 113°
2026-05-08 10:56 -34.53119 -58.28270 6657 ft 125 kts 111°
2026-05-08 10:57 -34.53376 -58.27223 6670 ft 133 kts 112°
2026-05-08 10:57 -34.53646 -58.26118 6680 ft 139 kts 112°
2026-05-08 10:57 -34.54197 -58.23857 6674 ft 140 kts 111°
2026-05-08 10:58 -34.54475 -58.22722 6678 ft 141 kts 111°
2026-05-08 10:58 -34.54757 -58.21571 6674 ft 143 kts 111°
2026-05-08 10:58 -34.55040 -58.20411 6674 ft 144 kts 111°
2026-05-08 10:58 -34.55322 -58.19259 6673 ft 145 kts 112°
2026-05-08 10:59 -34.55608 -58.18089 6673 ft 145 kts 111°
2026-05-08 10:59 -34.55895 -58.16913 6673 ft 145 kts 112°
2026-05-08 10:59 -34.56182 -58.15738 6675 ft 145 kts 110°
2026-05-08 10:59 -34.56469 -58.14560 6670 ft 145 kts 111°
2026-05-08 11:00 -34.56754 -58.13393 6673 ft 143 kts 111°
2026-05-08 11:00 -34.57034 -58.12241 6671 ft 143 kts 112°
2026-05-08 11:00 -34.57316 -58.11091 6670 ft 143 kts 111°
2026-05-08 11:00 -34.57598 -58.09930 6666 ft 143 kts 112°
2026-05-08 11:01 -34.57881 -58.08770 6662 ft 144 kts 111°
2026-05-08 11:01 -34.58163 -58.07609 6665 ft 144 kts 111°
2026-05-08 11:01 -34.58448 -58.06441 6666 ft 144 kts 110°
2026-05-08 11:01 -34.58733 -58.05268 6670 ft 145 kts 110°
2026-05-08 11:02 -34.59018 -58.04094 6668 ft 145 kts 111°
2026-05-08 11:02 -34.59591 -58.01733 6675 ft 146 kts 111°
2026-05-08 11:02 -34.59878 -58.00552 6677 ft 146 kts 112°
2026-05-08 11:03 -34.60165 -57.99369 6678 ft 146 kts 111°
2026-05-08 11:03 -34.60450 -57.98195 6674 ft 147 kts 111°
2026-05-08 11:03 -34.60737 -57.97007 6678 ft 147 kts 110°
2026-05-08 11:03 -34.61026 -57.95817 6680 ft 147 kts 110°
2026-05-08 11:04 -34.61313 -57.94628 6675 ft 147 kts 111°
2026-05-08 11:04 -34.61603 -57.93432 6287 ft 148 kts 111°
2026-05-08 11:04 -34.61893 -57.92237 5906 ft 148 kts 110°
2026-05-08 11:04 -34.62182 -57.91039 5550 ft 148 kts 111°
2026-05-08 11:05 -34.62474 -57.89831 5204 ft 148 kts 112°
2026-05-08 11:05 -34.62762 -57.88637 5175 ft 147 kts 111°
2026-05-08 11:05 -34.63051 -57.87440 5171 ft 148 kts 111°
2026-05-08 11:05 -34.63338 -57.86250 5176 ft 149 kts 111°
2026-05-08 11:06 -34.63634 -57.85024 5176 ft 150 kts 110°
2026-05-08 11:06 -34.63925 -57.83821 6677 ft 151 kts 111°
2026-05-08 11:06 -34.64223 -57.82581 6671 ft 151 kts 111°
2026-05-08 11:06 -34.64520 -57.81350 6673 ft 152 kts 110°
2026-05-08 11:07 -34.64811 -57.80139 6670 ft 151 kts 111°
2026-05-08 11:07 -34.65106 -57.78912 6671 ft 151 kts 111°
2026-05-08 11:07 -34.65402 -57.77684 6672 ft 152 kts 110°
2026-05-08 11:07 -34.65698 -57.76454 6671 ft 152 kts 111°
2026-05-08 11:08 -34.65994 -57.75218 6670 ft 153 kts 110°
2026-05-08 11:08 -34.66291 -57.73981 6668 ft 153 kts 110°
2026-05-08 11:08 -34.66589 -57.72740 6667 ft 153 kts 111°
2026-05-08 11:08 -34.66889 -57.71490 6672 ft 154 kts 110°
2026-05-08 11:09 -34.67189 -57.70240 6673 ft 155 kts 110°
2026-05-08 11:09 -34.67490 -57.68985 6672 ft 155 kts 111°
2026-05-08 11:09 -34.67792 -57.67725 6671 ft 154 kts 111°
2026-05-08 11:09 -34.68090 -57.66477 6664 ft 155 kts 111°
2026-05-08 11:10 -34.68390 -57.65223 6668 ft 155 kts 110°
2026-05-08 11:10 -34.68691 -57.63966 6663 ft 155 kts 111°
2026-05-08 11:10 -34.68991 -57.62710 6663 ft 154 kts 110°
2026-05-08 11:10 -34.69286 -57.61478 6666 ft 154 kts 110°
2026-05-08 11:11 -34.69584 -57.60228 6666 ft 154 kts 111°
2026-05-08 11:11 -34.69885 -57.58973 6665 ft 155 kts 111°
2026-05-08 11:11 -34.70184 -57.57716 6666 ft 155 kts 112°
2026-05-08 11:11 -34.70484 -57.56459 6671 ft 155 kts 111°
2026-05-08 11:12 -34.70784 -57.55203 6672 ft 155 kts 110°
2026-05-08 11:12 -34.71083 -57.53945 6670 ft 155 kts 111°
2026-05-08 11:12 -34.71384 -57.52681 6670 ft 155 kts 109°
2026-05-08 11:12 -34.71579 -57.51843 6668 ft 156 kts 109°
2026-05-08 11:13 -34.71711 -57.50527 6666 ft 157 kts 99°
2026-05-08 11:13 -34.71822 -57.49201 6669 ft 158 kts 99°
2026-05-08 11:13 -34.71937 -57.47866 6665 ft 159 kts 100°
2026-05-08 11:13 -34.72050 -57.46532 6666 ft 159 kts 100°
2026-05-08 11:14 -34.72162 -57.45199 6665 ft 159 kts 100°
2026-05-08 11:14 -34.72276 -57.43851 6668 ft 160 kts 100°
2026-05-08 11:14 -34.72389 -57.42504 6666 ft 160 kts 99°
2026-05-08 11:14 -34.72502 -57.41156 6667 ft 160 kts 99°
2026-05-08 11:15 -34.72616 -57.39805 6664 ft 161 kts 99°
2026-05-08 11:15 -34.72730 -57.38448 6667 ft 161 kts 99°
2026-05-08 11:15 -34.72842 -57.37092 6662 ft 161 kts 99°
2026-05-08 11:15 -34.72956 -57.35739 6664 ft 161 kts 99°
2026-05-08 11:16 -34.73069 -57.34382 6670 ft 162 kts 99°
2026-05-08 11:16 -34.73181 -57.33033 6668 ft 163 kts 99°
2026-05-08 11:16 -34.73295 -57.31660 6667 ft 163 kts 99°
2026-05-08 11:16 -34.73409 -57.30288 6670 ft 163 kts 98°
2026-05-08 11:17 -34.73523 -57.28918 6662 ft 162 kts 99°
2026-05-08 11:17 -34.73636 -57.27548 6661 ft 163 kts 99°
2026-05-08 11:17 -34.73750 -57.26174 6661 ft 163 kts 98°
2026-05-08 11:17 -34.73864 -57.24798 6661 ft 164 kts 98°
2026-05-08 11:18 -34.73977 -57.23417 6663 ft 164 kts 98°
2026-05-08 11:18 -34.74092 -57.22034 6665 ft 165 kts 98°
2026-05-08 11:18 -34.74205 -57.20646 6663 ft 165 kts 98°
2026-05-08 11:18 -34.74318 -57.19277 6662 ft 165 kts 98°
2026-05-08 11:19 -34.74432 -57.17879 6667 ft 167 kts 98°
2026-05-08 11:19 -34.74548 -57.16472 6668 ft 167 kts 98°
2026-05-08 11:19 -34.74662 -57.15071 6670 ft 165 kts 98°
2026-05-08 11:19 -34.74776 -57.13680 6664 ft 165 kts 98°
2026-05-08 11:20 -34.74889 -57.12287 6668 ft 165 kts 98°
2026-05-08 11:20 -34.75003 -57.10897 6664 ft 165 kts 98°
2026-05-08 11:20 -34.75116 -57.09502 6667 ft 166 kts 98°
2026-05-08 11:20 -34.75229 -57.08108 6666 ft 165 kts 97°
2026-05-08 11:21 -34.75342 -57.06717 6665 ft 166 kts 98°
2026-05-08 11:21 -34.75455 -57.05323 6665 ft 166 kts 98°
2026-05-08 11:21 -34.75568 -57.03927 6665 ft 166 kts 98°
2026-05-08 11:21 -34.75681 -57.02526 6668 ft 167 kts 98°
2026-05-08 11:22 -34.75794 -57.01120 6666 ft 167 kts 98°
2026-05-08 11:22 -34.75907 -56.99718 6667 ft 166 kts 98°
2026-05-08 11:22 -34.76020 -56.98315 6666 ft 167 kts 98°
2026-05-08 11:22 -34.76132 -56.96910 6661 ft 167 kts 98°
2026-05-08 11:23 -34.76245 -56.95505 6662 ft 167 kts 98°
2026-05-08 11:23 -34.76357 -56.94104 6656 ft 167 kts 98°
2026-05-08 11:23 -34.76469 -56.92704 6657 ft 167 kts 98°
2026-05-08 11:23 -34.76581 -56.91307 6653 ft 168 kts 98°
2026-05-08 11:24 -34.76693 -56.89896 6656 ft 167 kts 98°
2026-05-08 11:24 -34.76805 -56.88494 6654 ft 166 kts 98°
2026-05-08 11:24 -34.76915 -56.87098 6656 ft 165 kts 97°
2026-05-08 11:24 -34.77025 -56.85707 6651 ft 166 kts 98°
2026-05-08 11:25 -34.77137 -56.84305 6650 ft 167 kts 98°
2026-05-08 11:25 -34.77248 -56.82897 6654 ft 167 kts 98°
2026-05-08 11:25 -34.77359 -56.81493 6647 ft 166 kts 98°
2026-05-08 11:25 -34.77466 -56.80127 6649 ft 165 kts 98°
2026-05-08 11:26 -34.77579 -56.78705 6644 ft 166 kts 98°
2026-05-08 11:26 -34.77688 -56.77309 6647 ft 165 kts 98°
2026-05-08 11:26 -34.77796 -56.75931 6645 ft 166 kts 98°
2026-05-08 11:26 -34.77906 -56.74534 6645 ft 167 kts 98°
2026-05-08 11:27 -34.78016 -56.73125 6647 ft 166 kts 98°
2026-05-08 11:27 -34.78126 -56.71728 6642 ft 166 kts 98°
2026-05-08 11:27 -34.78234 -56.70328 6639 ft 166 kts 98°
2026-05-08 11:27 -34.78342 -56.68922 6635 ft 167 kts 98°
2026-05-08 11:28 -34.78451 -56.67513 6636 ft 167 kts 98°
2026-05-08 11:28 -34.78558 -56.66120 6637 ft 168 kts 98°
2026-05-08 11:28 -34.78668 -56.64687 6635 ft 168 kts 98°
2026-05-08 11:28 -34.78774 -56.63294 6637 ft 168 kts 98°
2026-05-08 11:29 -34.78883 -56.61878 6632 ft 168 kts 98°
2026-05-08 11:29 -34.78991 -56.60461 6626 ft 169 kts 98°
2026-05-08 11:29 -34.79099 -56.59038 6628 ft 168 kts 98°
2026-05-08 11:29 -34.79207 -56.57623 6629 ft 168 kts 98°
2026-05-08 11:30 -34.79315 -56.56205 6626 ft 168 kts 98°
2026-05-08 11:30 -34.79422 -56.54791 6621 ft 167 kts 98°
2026-05-08 11:30 -34.79529 -56.53380 6619 ft 168 kts 98°
2026-05-08 11:30 -34.79637 -56.51960 6622 ft 169 kts 97°
2026-05-08 11:31 -34.79743 -56.50549 6621 ft 170 kts 97°
2026-05-08 11:31 -34.79851 -56.49123 6620 ft 169 kts 98°
2026-05-08 11:31 -34.79958 -56.47692 6620 ft 169 kts 97°
2026-05-08 11:31 -34.80066 -56.46261 6624 ft 170 kts 97°
2026-05-08 11:32 -34.80173 -56.44830 6617 ft 170 kts 97°
2026-05-08 11:32 -34.80280 -56.43399 6616 ft 169 kts 97°
2026-05-08 11:32 -34.80387 -56.41971 6618 ft 169 kts 97°
2026-05-08 11:32 -34.80494 -56.40543 6623 ft 170 kts 97°
2026-05-08 11:33 -34.80601 -56.39102 6617 ft 171 kts 97°
2026-05-08 11:33 -34.80707 -56.37686 6617 ft 169 kts 97°
2026-05-08 11:33 -34.80814 -56.36240 6616 ft 169 kts 97°
2026-05-08 11:33 -34.80918 -56.34834 6617 ft 170 kts 97°
2026-05-08 11:34 -34.81024 -56.33404 6611 ft 170 kts 97°
2026-05-08 11:34 -34.81108 -56.32283 6615 ft 170 kts 97°
2026-05-08 11:34 -34.81214 -56.30845 6615 ft 171 kts 97°
2026-05-08 11:34 -34.81320 -56.29403 6621 ft 171 kts 96°
2026-05-08 11:35 -34.81426 -56.27963 6614 ft 170 kts 96°
2026-05-08 11:35 -34.81532 -56.26532 6614 ft 170 kts 97°
2026-05-08 11:35 -34.81637 -56.25097 6612 ft 170 kts 97°
2026-05-08 11:35 -34.81742 -56.23662 6617 ft 170 kts 97°
2026-05-08 11:36 -34.81847 -56.22226 6616 ft 171 kts 97°
2026-05-08 11:36 -34.81953 -56.20786 6616 ft 170 kts 96°
2026-05-08 11:36 -34.82057 -56.19356 6616 ft 169 kts 96°
2026-05-08 11:36 -34.82160 -56.17939 6618 ft 170 kts 97°
2026-05-08 11:37 -34.82265 -56.16499 6617 ft 171 kts 97°
2026-05-08 11:37 -34.82370 -56.15052 6616 ft 172 kts 97°
2026-05-08 11:37 -34.82474 -56.13605 6589 ft 172 kts 97°
2026-05-08 11:37 -34.82578 -56.12169 6595 ft 170 kts 97°
2026-05-08 11:38 -34.82683 -56.10724 6584 ft 172 kts 97°
2026-05-08 11:38 -34.82788 -56.09274 6581 ft 172 kts 97°
2026-05-08 11:38 -34.82892 -56.07821 6586 ft 172 kts 96°
2026-05-08 11:38 -34.82997 -56.06367 6588 ft 173 kts 96°
2026-05-08 11:39 -34.83099 -56.04933 6585 ft 173 kts 96°
2026-05-08 11:39 -34.83203 -56.03481 6587 ft 172 kts 96°
2026-05-08 11:39 -34.83275 -56.02022 6584 ft 172 kts 91°
2026-05-08 11:39 -34.83310 -56.00565 6590 ft 173 kts 94°
2026-05-08 11:40 -34.83374 -55.99097 6588 ft 174 kts 94°
2026-05-08 11:40 -34.83425 -55.97624 6590 ft 174 kts 93°
2026-05-08 11:40 -34.83469 -55.96170 6589 ft 174 kts 93°
2026-05-08 11:40 -34.83514 -55.94707 6593 ft 173 kts 93°
2026-05-08 11:41 -34.83559 -55.93238 6587 ft 174 kts 93°
2026-05-08 11:41 -34.83603 -55.91768 6587 ft 173 kts 93°
2026-05-08 11:41 -34.83648 -55.90300 6589 ft 174 kts 93°
2026-05-08 11:41 -34.83692 -55.88831 6592 ft 174 kts 93°
2026-05-08 11:42 -34.83734 -55.87360 6588 ft 174 kts 93°
2026-05-08 11:42 -34.83777 -55.85888 6590 ft 174 kts 93°
2026-05-08 11:42 -34.83822 -55.84417 6589 ft 174 kts 93°
2026-05-08 11:42 -34.83866 -55.82946 6594 ft 174 kts 93°
2026-05-08 11:43 -34.84162 -55.81549 6584 ft 170 kts 118°
2026-05-08 11:43 -34.84656 -55.80237 6582 ft 171 kts 119°
2026-05-08 11:43 -34.85149 -55.78921 6585 ft 171 kts 119°
2026-05-08 11:43 -34.85645 -55.77596 6597 ft 173 kts 119°
2026-05-08 11:44 -34.86145 -55.76260 6592 ft 174 kts 119°
2026-05-08 11:44 -34.86566 -55.74881 6592 ft 174 kts 110°
2026-05-08 11:44 -34.86908 -55.73488 6593 ft 173 kts 111°
2026-05-08 11:44 -34.87306 -55.72104 6597 ft 173 kts 114°
2026-05-08 11:45 -34.87718 -55.70729 6599 ft 173 kts 114°
2026-05-08 11:45 -34.88133 -55.69345 6598 ft 173 kts 114°
2026-05-08 11:45 -34.88542 -55.67966 6598 ft 173 kts 114°
2026-05-08 11:45 -34.88950 -55.66586 6601 ft 173 kts 114°
2026-05-08 11:46 -34.89360 -55.65196 6598 ft 174 kts 114°
2026-05-08 11:46 -34.89767 -55.63813 6596 ft 173 kts 114°
2026-05-08 11:46 -34.90178 -55.62429 6550 ft 176 kts 114°
2026-05-08 11:46 -34.90609 -55.61007 6414 ft 179 kts 114°
2026-05-08 11:47 -34.91040 -55.59581 6277 ft 179 kts 114°
2026-05-08 11:47 -34.91468 -55.58168 6132 ft 180 kts 114°
2026-05-08 11:47 -34.91905 -55.56735 5991 ft 180 kts 114°
2026-05-08 11:47 -34.92283 -55.55275 5848 ft 181 kts 108°
2026-05-08 11:48 -34.92615 -55.53779 5692 ft 183 kts 108°
2026-05-08 11:48 -34.92946 -55.52283 5538 ft 183 kts 108°
2026-05-08 11:48 -34.93278 -55.50791 5386 ft 181 kts 108°
2026-05-08 11:48 -34.93611 -55.49309 5229 ft 182 kts 108°
2026-05-08 11:49 -34.93923 -55.47819 5074 ft 181 kts 104°
2026-05-08 11:49 -34.94165 -55.46315 4922 ft 181 kts 102°
2026-05-08 11:49 -34.94413 -55.44805 4767 ft 182 kts 103°
2026-05-08 11:49 -34.94660 -55.43287 4622 ft 183 kts 103°
2026-05-08 11:50 -34.94908 -55.41761 4473 ft 183 kts 103°
2026-05-08 11:50 -34.95155 -55.40235 4314 ft 184 kts 103°
2026-05-08 11:50 -34.95396 -55.38725 4165 ft 184 kts 102°
2026-05-08 11:50 -34.95645 -55.37194 4010 ft 184 kts 103°
2026-05-08 11:51 -34.95901 -55.35658 3855 ft 185 kts 103°
2026-05-08 11:51 -34.96160 -55.34119 3704 ft 185 kts 103°
2026-05-08 11:51 -34.96256 -55.32557 3503 ft 187 kts 82°
2026-05-08 11:51 -34.95946 -55.31117 3631 ft 166 kts 64°
2026-05-08 11:52 -34.95481 -55.29804 3448 ft 173 kts 57°
2026-05-08 11:52 -34.94936 -55.28567 3580 ft 155 kts 55°
2026-05-08 11:52 -34.94480 -55.27336 3470 ft 170 kts 72°
2026-05-08 11:52 -34.94413 -55.25830 3188 ft 186 kts 97°
2026-05-08 11:53 -34.94980 -55.24465 3013 ft 178 kts 140°
2026-05-08 11:53 -34.95827 -55.23409 2946 ft 173 kts 143°
2026-05-08 11:53 -34.96712 -55.22387 2793 ft 175 kts 143°
2026-05-08 11:53 -34.97556 -55.21324 2686 ft 174 kts 143°
2026-05-08 11:54 -34.98425 -55.20278 2577 ft 174 kts 143°
2026-05-08 11:54 -34.99259 -55.19274 2580 ft 170 kts 140°
2026-05-08 11:54 -34.99951 -55.18123 2631 ft 168 kts 126°
2026-05-08 11:54 -35.00460 -55.16791 2540 ft 175 kts 114°
2026-05-08 11:55 -35.00856 -55.15438 2690 ft 165 kts 114°
2026-05-08 11:55 -35.01250 -55.14094 2645 ft 170 kts 114°
2026-05-08 11:55 -35.01657 -55.12745 2613 ft 168 kts 110°
2026-05-08 11:55 -35.01536 -55.11403 2585 ft 156 kts 47°
2026-05-08 11:56 -35.00794 -55.10804 2803 ft 116 kts
2026-05-08 11:56 -35.00053 -55.10351 2803 ft 119 kts 10°
2026-05-08 11:56 -34.99283 -55.10030 2631 ft 117 kts 358°
2026-05-08 11:56 -34.98478 -55.09873 2368 ft 123 kts 355°
2026-05-08 11:57 -34.97626 -55.09585 2102 ft 127 kts
2026-05-08 11:57 -34.96808 -55.09345 1908 ft 116 kts 354°
2026-05-08 11:57 -34.96040 -55.09191 1825 ft 102 kts 348°
2026-05-08 11:57 -34.95351 -55.09110 1789 ft 102 kts 347°
2026-05-08 11:58 -34.94692 -55.09103 1794 ft 89 kts 338°
2026-05-08 11:58 -34.94106 -55.09125 1753 ft 83 kts 339°
2026-05-08 11:58 -34.93540 -55.09198 1606 ft 81 kts 331°
2026-05-08 11:59 -34.92374 -55.09340 1358 ft 80 kts 335°
2026-05-08 11:59 -34.91831 -55.09376 1277 ft 80 kts 339°
2026-05-08 11:59 -34.91285 -55.09368 1198 ft 74 kts 333°
2026-05-08 11:59 -34.90745 -55.09397 1053 ft 81 kts 342°
2026-05-08 12:00 -34.90167 -55.09362 959 ft 84 kts 348°
2026-05-08 12:00 -34.89581 -55.09294 857 ft 85 kts 348°
2026-05-08 12:00 -34.89020 -55.09283 801 ft 80 kts 338°
2026-05-08 12:00 -34.88453 -55.09304 682 ft 85 kts 351°
2026-05-08 12:01 -34.87864 -55.09243 564 ft 81 kts 351°
2026-05-08 12:01 -34.87317 -55.09227 411 ft 71 kts 350°
2026-05-08 12:01 -34.86846 -55.09305 255 ft 67 kts 350°
2026-05-08 12:01 -34.86394 -55.09367 118 ft 63 kts 357°
2026-05-08 12:02 -34.86021 -55.09384 97 ft 39 kts 357°
2026-05-08 12:02 -34.85878 -55.09387 97 ft 20 kts 14°
2026-05-08 12:02 -34.85838 -55.09389 97 ft 4 kts 208°
2026-05-08 12:02 -34.85887 -55.09388 97 ft 13 kts 174°
2026-05-08 12:03 -34.85990 -55.09379 97 ft 16 kts 165°
2026-05-08 12:03 -34.86155 -55.09374 97 ft 20 kts 182°
2026-05-08 12:03 -34.86252 -55.09369 97 ft 23 kts 178°
2026-05-08 12:03 -34.86422 -55.09360 96 ft 24 kts 192°
2026-05-08 12:04 -34.86419 -55.09416 97 ft 9 kts 309°
2026-05-08 12:04 -34.86373 -55.09525 97 ft 16 kts 294°
2026-05-08 12:04 -34.86431 -55.09586 97 ft 13 kts 207°
2026-05-08 12:04 -34.86471 -55.09661 97 ft 9 kts 232°
2026-05-08 12:05 -34.86482 -55.09650 97 ft 0 kts 110°